Jackpot

Texas Poker Multi Jackpot System

Kini Telah hadir Jackpot SUPER ROYAL FLUSH

Kini Telah hadir Jackpot 2000 (khusus table VIP keatas).

Ikutilah global jackpot yang tersedia di system kami, dengan system jackpot terbaru dan pertama di indonesia, anda dapat membeli jackpot dengan harga 100 rupiah saja dan menangkan hadiahnya hingga puluhan juta rupiah.

Jackpot bukanlah suatu keharusan untuk dibeli, namun kami memberikan suatu fitur tambahan untuk member tercinta dari www.fifapoker.co.

Terdapat tiga pilihan harga jackpot yang bisa anda beli yaitu :100,500,1000 dan 2000(khusus table VIP Keatas) rupiah.

Hadiah dari Multi jackpot system www.fifapoker.co

  1. full house x 10 harga jackpot yang anda beli.
      (contoh:anda membeli 1000 maka:1000 X10 = 10.000)
  2. four of kind x 250 harga jackpot yang anda beli
      (contoh:anda membeli 1000 maka:1000 X250 = 250.000)
  3. Straight flush x 1200
      (contoh:anda membeli 1000 maka:1000 X1200 = 1.200.000)
  4. Royal flush x 10000 harga jackpot yang anda beli
      (contoh:anda membeli 1000 maka:1000 X10000 = 10.000.000)
  5. SUPER ROYAL FLUSH x 30000 harga jackpot yang anda beli
      (contoh:anda membeli 1000 maka:1000 X30000 = 30.000.000)

Kondisi kartu

  1. full house adalah kondisi kartu dimana kartu anda dan kartu tengah dengan total 7 kartu bisa mendapatkan nilai 5 kartu dengan kombinasi 1 tris(three of kind) dan 1 pair, contoh 3 kartu 10 dan 2 kartu 5
  2. Four of kind adalah kondisi kartu dimana kartu anda dan kartu tengah dengan total 7 kartu bisa mendapatkan nilai 5 kartu dengan kombinasi 4 kartu yang sama jumlah dan 1 kartu apapun juga contoh anda mendapatkan 4 buah kartu angka 3 dan 1 kartu apapun.
  3. Staright flush adalah kondisi kartu dimana kartu anda dan kartu tengah dengan total 7 kartu bisa mendapatkan nilai 5 kartu dengan kombinasi seri / staright dengan kembang yang sama contoh : urutan kartu dari angka 5, 6, 7, 8 , 9 10 dengan kembang yg sama misalnya as hati
  4. Royal flush adalah kondisi kartu dimana kartu anda dan kartu tengah dengan total 7 kartu bisa mendapatkan nilai 5 kartu dengan kombinasi seri / staright dengan kembang yang sama tetapi kartu tersebut haruslah dimulai dari 10. contoh 10, Queen, Jack, King dan aces dengan kembang yang sama
  5. Super Royal flush adalah kondisi kartu dimana Kedua kartu anda digabung dengan 3 kartu pertama meja haruslah royal flush. contoh kartu anda 10,Queen kembang sama dan 3 kartu pertama meja adalah Jack, King dan aces dengan kembang yang sama

Demikian adalah penjelasan dari Multi Jackpot www.fifapoker.co terima kasih dan selamat bermain salam hoki dari kami

Texas Poker Jackpot Winner

TOP SUPER ROYAL FLUSH
No.TanggalNamaPriceWin
118/06 21:06SULAYMAN99Super Royal flush6,000,000
218/06 20:34PAN_CHANSuper Royal flush30,000,000
318/06 17:44BWTCH88Super Royal flush30,000,000
418/06 16:04T4SLIM10Super Royal flush6,000,000
518/06 15:50ASEL111Super Royal flush30,000,000
TOP ROYAL FLUSH
No.TanggalNamaPriceWin
118/06 22:00BOTE78Royal flush5,000,000
218/06 21:54MELLY243Royal flush10,000,000
318/06 21:49LEONWIN1Royal flush20,000,000
418/06 21:49MMB01Royal flush20,000,000
518/06 21:45BODOL1996Royal flush2,000,000
TOP STRAIGHT FLUSH
No.TanggalNamaPriceWin
118/06 22:06HERLAUStraight Flush120,000
218/06 22:04VGOCHAOSBLK90Straight Flush120,000
318/06 22:04SINAPGUNStraight Flush240,000
418/06 22:03SPESIALAStraight Flush240,000
518/06 22:02SKCK07Straight Flush600,000
LATEST JACKPOT
No.TanggalNamaPriceWin
118/06 22:06XXONE21Full House10,000
218/06 22:06HERLAUStraight Flush120,000
318/06 22:06LOVITA72Full House10,000
418/06 22:06HATED13Full House10,000
518/06 22:06ULING_O07Full House2,000
618/06 22:06B1717JFull House5,000
718/06 22:06CO8RAX9999Full House5,000
818/06 22:06BULONKSFull House5,000
918/06 22:06MAXOVER_07Full House5,000
1018/06 22:06A5IK88Full House10,000
1118/06 22:06Z2NIJS0F1GFull House2,000
1218/06 22:06CB77SUTSUT32Full House5,000
1318/06 22:06INITIAL_D9Full House10,000
1418/06 22:06TOMITOLENFull House1,000
1518/06 22:06L98856EUIVFull House1,000
1618/06 22:06GMX333Four Of A Kind250,000
1718/06 22:06XMAN2Four Of A Kind500,000
1818/06 22:06COETEMPURFull House10,000
1918/06 22:06SELVIA02Full House2,000
2018/06 22:06PEHONG22Full House5,000
2118/06 22:06PK_TANJUNGFull House5,000
2218/06 22:06DIMAZ444Full House2,000
2318/06 22:06OCONG_UANGFour Of A Kind125,000
2418/06 22:06RADARFull House5,000
2518/06 22:06SAMIDRI12Full House10,000
2618/06 22:06PENK55Full House2,000
2718/06 22:06DIANTY02Four Of A Kind125,000
2818/06 22:06ZAVIERRAFull House20,000
2918/06 22:05TIANAQQFull House10,000
3018/06 22:05AHL1WDFull House5,000
3118/06 22:05JOINK378Full House5,000
3218/06 22:05EL751332Full House10,000
3318/06 22:05CHONGTYFull House2,000
3418/06 22:05NONAPESEEKFull House5,000
3518/06 22:05PUTIH_07Full House5,000
3618/06 22:05A5033266Full House5,000
3718/06 22:05BOSPINKFull House2,000
3818/06 22:05BOYANIMRODFull House2,000
3918/06 22:05TUNDUN999Four Of A Kind125,000
4018/06 22:05SS1810Full House500
4118/06 22:05CHAINES88Full House1,000
4218/06 22:05ZACKP0TBO5Full House1,000
4318/06 22:05SAPU6969Full House2,000
4418/06 22:05OPEN666Full House2,000
4518/06 22:05CB1D56C7Full House2,000
4618/06 22:05K412SM4Full House5,000
4718/06 22:05PGM1990Full House10,000
4818/06 22:05SINEM22Full House2,000
4918/06 22:05NSP83Full House2,000
5018/06 22:05CIDIL12Full House5,000

Domino Multi Jackpot System

Ikutilah global jackpot yang tersedia di system kami, dengan system jackpot terbaru dan pertama di indonesia, anda dapat membeli jackpot dengan harga 100 rupiah saja dan menangkan hadiahnya hingga puluhan juta rupiah.

Jackpot bukanlah suatu keharusan untuk dibeli, namun kami memberikan suatu fitur tambahan untuk member tercinta dari www.fifapoker.co.

Terdapat tiga pilihan harga jackpot yang bisa anda beli yaitu :100,500 dan 1000 rupiah.

Hadiah dari Multi jackpot system www.fifapoker.co

  1. Murni Kecil x 50 harga jackpot yang anda beli.
      (contoh:anda membeli 1000 maka:1000 X 50 = 50.000)
  2. Murni Besar x 50 harga jackpot yang anda beli
      (contoh:anda membeli 1000 maka:1000 X 50 = 50.000)
  3. BALAK x 100 harga jackpot yang anda beli
      (contoh:anda membeli 1000 maka:1000 X 100 = 100.000)
  4. ENAM DEWA x 6666 harga jackpot yang anda beli
      (contoh:anda membeli 1000 maka:1000 X 6666 = 6.666.000)

Demikian adalah penjelasan dari Multi Jackpot www.fifapoker.co terima kasih dan selamat bermain salam hoki dari kami

Domino Jackpot Winner

TOP ENAM DEWA
No.TanggalNamaPriceWin
118/06 17:34SUHRAH11murni enam6,666,000
218/06 16:18T4DRHEVANmurni enam666,600
318/06 11:55ANGGRIANImurni enam3,333,000
418/06 07:21ARB89661murni enam666,600
518/06 03:12CLASIC9murni enam6,666,000
TOP BALAK
No.TanggalNamaPriceWin
118/06 22:05YUSEP25balak100,000
218/06 22:03GONZA02balak100,000
318/06 22:00R3Z3K178balak10,000
418/06 22:00JACKBRATAbalak100,000
518/06 21:55DLA1MAXIMUMJRbalak100,000
LATEST JACKPOT
No.TanggalNamaPriceWin
118/06 22:06NIE9MQ7ELCmurni besar50,000
218/06 22:06BACOM72lucky9925,000
318/06 22:05ALIBACO197murni besar5,000
418/06 22:05YUSEP25balak100,000
518/06 22:05IRIN230590murni kecil25,000
618/06 22:05DWBT25XW19murni besar50,000
718/06 22:05QIAN27murni besar50,000
818/06 22:04J415DITmurni besar25,000
918/06 22:04SOMAY81murni besar25,000
1018/06 22:03GONZA02murni kecil50,000
1118/06 22:03LATANSA99murni besar50,000
1218/06 22:03GONZA02balak100,000
1318/06 22:02MRDOBRAG79murni kecil25,000
1418/06 22:02S889murni besar5,000
1518/06 22:01ZUKY005murni besar50,000
1618/06 22:00R3Z3K178balak10,000
1718/06 22:00DANISIMOmurni kecil50,000
1818/06 22:00RIPHOlucky992,500
1918/06 22:00ESJITU85murni besar25,000
2018/06 22:00JACKBRATAbalak100,000
2118/06 21:59AZEEP404lucky992,500
2218/06 21:59AMPEANmurni besar50,000
2318/06 21:58MRDOBRAG79murni kecil25,000
2418/06 21:57BEXS27murni besar50,000
2518/06 21:57LOSTROMmurni besar50,000
2618/06 21:57FAREL090murni kecil5,000
2718/06 21:57ACHIETTTmurni kecil50,000
2818/06 21:57GRAND124lucky9910,000
2918/06 21:55DLA1MAXIMUMJRbalak100,000
3018/06 21:54FAKEOFFmurni besar50,000
3118/06 21:53BENJ0LZbalak10,000
3218/06 21:53COTOKETUPAmurni kecil25,000
3318/06 21:53MDRLOGEN46murni besar50,000
3418/06 21:53K4MUS27murni kecil25,000
3518/06 21:53SHINSHE88murni besar25,000
3618/06 21:53ENDRIYANTOmurni besar25,000
3718/06 21:52T4DMERCON99lucky9925,000
3818/06 21:52JEJE531balak100,000
3918/06 21:52DWBTUPIN78murni besar25,000
4018/06 21:52AAPHAAHA33murni kecil5,000
4118/06 21:52WRDGENIUSmurni kecil50,000
4218/06 21:52BANGTAM93murni besar50,000
4318/06 21:52SOLONG85murni besar50,000
4418/06 21:51YOYOK14lucky9925,000
4518/06 21:51UYU6NGbalak50,000
4618/06 21:51ACHIETTTmurni kecil50,000
4718/06 21:51BLALANG77murni besar5,000
4818/06 21:50E3A40E93murni besar5,000
4918/06 21:50GRB_RIZALbalak50,000
5018/06 21:49BLALANG77murni besar5,000

Ceme Multi Jackpot System

Jackpot dilihat dari gabungan kartu pemain dengan kartu bandar. Bandar harus membeli jackpot sebanyak jumlah player yang sedang duduk. Sebagai contoh bila terdapat 3 pemain duduk bermain, dan bandar memutuskan untuk membeli jackpot Rp 1.000, maka pada periode tersebut bandar akan membeli jackpot sebanyak 3xRp1.000 = Rp3.000.

Jackpot bukanlah suatu keharusan untuk dibeli, namun kami memberikan suatu fitur tambahan untuk member tercinta dari www.fifapoker.co.

Terdapat tiga pilihan harga jackpot yang bisa anda beli yaitu :100,500 dan 1000 rupiah.

Hadiah dari Multi jackpot system www.fifapoker.co

  1. Murni Kecil x 50 harga jackpot yang anda beli.
      (contoh:anda membeli 1000 maka:1000 X 50 = 50.000)
  2. Murni Besar x 50 harga jackpot yang anda beli
      (contoh:anda membeli 1000 maka:1000 X 50 = 50.000)
  3. BALAK x 200 harga jackpot yang anda beli
      (contoh:anda membeli 1000 maka:1000 X 200 = 200.000)
  4. ENAM DEWA x 6666 harga jackpot yang anda beli
      (contoh:anda membeli 1000 maka:1000 X 6666 = 6.666.000)

Demikian adalah penjelasan dari Multi Jackpot www.fifapoker.co terima kasih dan selamat bermain salam hoki dari kami

Ceme Jackpot Winner

TOP ENAM DEWA
No.TanggalNamaPriceWin
118/06 21:59KARJADENOKmurni enam3,333,000
218/06 21:52AGENKIKUKmurni enam6,666,000
318/06 21:52SIGARUK88murni enam6,666,000
418/06 21:33LAM66IImurni enam6,666,000
518/06 21:26J4BR3K99murni enam666,600
TOP BALAK
No.TanggalNamaPriceWin
118/06 22:05HERUTAIbalak20,000
218/06 22:05KHACO88balak200,000
318/06 22:05A68ET88799balak20,000
418/06 22:04KOPIEEbalak200,000
518/06 22:04KOON79300balak100,000
LATEST JACKPOT
No.TanggalNamaPriceWin
118/06 22:06DEPEGYmurni kecil25,000
218/06 22:05NEST0880murni kecil25,000
318/06 22:05LUCKYHEROmurni kecil25,000
418/06 22:05PULAN29murni kecil5,000
518/06 22:05KRISNA2007murni besar5,000
618/06 22:05LINUS81murni kecil50,000
718/06 22:05ARIEF0409murni kecil50,000
818/06 22:05HERUTAIbalak20,000
918/06 22:05KHACO88balak200,000
1018/06 22:05A68ET88799balak20,000
1118/06 22:05BUSAINAJAmurni kecil5,000
1218/06 22:05MR_BONGmurni besar50,000
1318/06 22:05CLW6ME70CLmurni besar50,000
1418/06 22:04KOPIEEbalak200,000
1518/06 22:04KOON79300balak100,000
1618/06 22:04EEOQRMK899murni besar25,000
1718/06 22:04BLORO0Kmurni besar5,000
1818/06 22:04B4DRAmurni besar50,000
1918/06 22:04LADEK19murni kecil50,000
2018/06 22:04ANDRIYODHAmurni besar50,000
2118/06 22:04TOG19murni besar50,000
2218/06 22:04GIULLYmurni besar50,000
2318/06 22:04BUABE1murni besar50,000
2418/06 22:04FAISA0711murni kecil25,000
2518/06 22:04MISYESmurni kecil50,000
2618/06 22:04PAY27murni kecil5,000
2718/06 22:04ANDAY52murni kecil25,000
2818/06 22:04IQBALHAKbalak200,000
2918/06 22:04INDIST12balak20,000
3018/06 22:04KRR111murni kecil50,000
3118/06 22:04NAUM05murni kecil25,000
3218/06 22:04B5B40203murni besar25,000
3318/06 22:04DADY08murni besar5,000
3418/06 22:04B5B40203murni besar25,000
3518/06 22:04F0D8DED7murni kecil25,000
3618/06 22:04SIPIT13murni kecil50,000
3718/06 22:04F0D8DED7murni kecil25,000
3818/06 22:04EEOQRMK899murni kecil25,000
3918/06 22:04BONDANSEImurni kecil50,000
4018/06 22:04BONDANSEImurni kecil50,000
4118/06 22:03FUENTES94murni kecil50,000
4218/06 22:03B36IF101033balak20,000
4318/06 22:03E4JGBFASS0murni kecil25,000
4418/06 22:03INDR4M4YUmurni besar25,000
4518/06 22:03REYHAN_57murni kecil5,000
4618/06 22:03AMRICA88murni kecil50,000
4718/06 22:03NOWVAL99murni kecil5,000
4818/06 22:03TOGEGEDEmurni kecil50,000
4918/06 22:03UNYI17murni kecil5,000
5018/06 22:03KAJIANDImurni kecil50,000